Regional Weather Roundup
Issued by NWS

Home | Current Version | Previous Version | Graphics & Text | Print | Product List | Glossary Off
Versions: 1 2 3 4 5 6 7 8 9 10 11 12 13 14 15 16 17 18 19 20 21 22 23 24 25 26 27 28 29 30 31 32 33 34 35 36 37 38 39 40 41 42 43 44 45 46 47 48 49 50

000
ASUS43 KTOP 190708
RWRKS

WEATHER ROUNDUP FOR KANSAS
NATIONAL WEATHER SERVICE GOODLAND KS
200 AM CDT SAT AUG 19 2017

NOTE:  "FAIR" INDICATES FEW OR NO CLOUDS BELOW 12,000 FEET WITH NO
SIGNIFICANT WEATHER AND/OR OBSTRUCTIONS TO VISIBILITY.

KSZ001>006-013>018-027>032-041>047-190800-
NORTHWEST KANSAS

CITY           SKY/WX    TMP DP  RH WIND       PRES   REMARKS
GOODLAND       CLEAR     62  56  80 S8        30.08F
HAYS           CLEAR     64  61  90 NW3       30.01F
HILL CITY      CLEAR     60  58  92 NW3       30.02S
RUSSELL        CLEAR     68  64  87 E3        29.99S
$$

KSZ061>065-074>080-084>089-190800-
SOUTHWEST KANSAS

CITY           SKY/WX    TMP DP  RH WIND       PRES   REMARKS
DODGE CITY     CLEAR     66  62  87 N5        30.03S
ELKHART          N/A     70  66  87 S7          N/A
GARDEN CITY    CLEAR     70  60  70 NE8       30.05S
GREAT BEND     PTCLDY    73  68  84 E3        30.00S
LIBERAL        CLEAR     70  66  87 W3        30.05S
PRATT          CLEAR     72  65  76 CALM      30.00S
$$

KSZ066>073-081>083-090>101-190800-
SOUTHEAST KANSAS

CITY           SKY/WX    TMP DP  RH WIND       PRES   REMARKS
CHANUTE        CLEAR     72  69  90 SE5       29.96F
COFFEYVILLE    CLEAR     72  70  93 CALM      29.96S
HUTCHINSON     PTCLDY    74  66  76 CALM      29.97S
MEDICINE LODGE   N/A     76  66  71 CALM      29.96S
NEWTON         PTCLDY    75  66  73 E7        29.98F
PARSONS        CLEAR     70  69  97 CALM      29.97S
WICHITA INTL   PTCLDY    77  67  71 NE9       29.96S
WICHITA JABRA  PTCLDY    73  69  87 E3        29.97S
WICHITA MCCONL CLEAR     76  65  67 S6        29.97S
WINFIELD       CLEAR     74  69  85 SE3       29.97S
$$

KSZ007>012-019>026-033>040-048>060-102>105-190800-
NORTHEAST KANSAS

CITY           SKY/WX    TMP DP  RH WIND       PRES   REMARKS
CONCORDIA      CLEAR     72  64  76 VRB3      29.97S
EMPORIA        CLEAR     72  67  84 W5        29.96F
LAWRENCE       CLEAR     65  65 100 N3        29.93F
MANHATTAN      CLEAR     67  66  97 CALM      29.94F
MARYSVILLE     CLEAR     63  61  94 CALM      29.96S
OLATHE IND     CLEAR     71  69  93 S6        29.94F
OLATHE EXE     CLEAR     70  70 100 S5        29.94F
SALINA         CLEAR     74  67  78 CALM      29.96F
TOPEKA BILLARD CLEAR     69  68  96 CALM      29.93F
TOPEKA FORBES  CLEAR     70  69  97 CALM      29.94F
$$




USA.gov is the U.S. government's official web portal to all federal, state and local government web resources and services.